Location: Montigny
(50.0909°N, 3.4123°E)
Time: 02:58:53
(UTC+00:00)

Daily predictions for brighter satellites

Satellite Brightness Start Highest point End
(mag) Time Altitude Azimuth Time Altitude Azimuth Time Altitude Azimuth
H-2A R/B 3.8 02:58:44 10° NE 03:02:38 26° E 03:02:38 26° E
NOSS 3-1 (A) 4.1 03:23:44 68° S 03:23:44 68° S 03:31:30 10° SSE
Cosmos 1980 Rocket 3.4 03:23:21 34° SE 03:24:20 37° ESE 03:29:26 10° NE
USA 281 3.8 03:21:54 10° SE 03:28:13 53° NE 03:32:53 19° NNW
ATLAS 3B R/B 3.0 03:27:51 62° NNW 03:29:18 80° NE 03:37:04 10° SE
USA 267 3.7 03:31:46 10° ENE 03:38:00 50° N 03:38:49 47° NNW
Cosmos 1697 Rocket 3.0 03:42:45 58° NNE 03:42:45 58° NNE 03:47:17 10° NNE
ATLAS CENTAUR R/B 3.5 03:43:56 21° ENE 03:43:56 21° ENE 03:45:26 10° NE
Lacrosse 4 Rocket 3.4 03:49:00 22° SE 03:49:00 22° SE 03:50:33 10° SE
ATLAS 2AS CENTAUR R/B 2.6 03:47:22 73° SW 03:48:09 86° NW 03:55:13 10° NE
Cosmos 1452 Rocket 3.9 03:52:05 56° NNE 03:52:05 56° NNE 03:56:12 10° NNE
Cosmos 1818 4.2 03:51:21 43° SSE 03:52:32 51° ESE 03:57:50 10° NE
USA 59 Rocket 1.4 03:53:36 33° NE 03:53:36 33° NE 03:57:19 10° ESE
CZ-2C R/B 3.5 03:53:59 10° NNE 03:56:41 34° N 03:56:41 34° N
Cosmos 2263 Rocket 2.0 04:00:00 80° SSW 04:00:00 80° SSW 04:05:24 10° SSE
Cosmos 2082 3.6 04:03:03 63° NNW 04:04:03 88° NE 04:09:44 10° SSE
Cosmos 2266 Rocket 4.0 04:04:33 10° S 04:10:59 87° E 04:17:25 10° N
BREEZE-M DEB (TANK) 3.0 04:14:05 47° E 04:14:05 47° E 04:17:47 10° E
NOSS 2-1 (E) 3.9 04:20:27 48° NNE 04:20:54 51° NE 04:25:30 10° ESE
SL-16 R/B 4.3 04:19:08 10° SSE 04:23:49 27° ESE 04:28:29 10° NE
USA 229 DEB 3.9 04:21:54 29° NW 04:26:09 88° SW 04:34:16 10° SE
USA 229 3.9 04:22:00 29° NW 04:26:17 88° SW 04:34:21 10° SE
Cosmos 1484 Rocket 3.2 04:24:08 10° NNE 04:27:37 52° E 04:30:40 12° S
Cosmos 304 Rocket 3.7 04:26:56 35° NNW 04:28:58 83° ENE 04:33:43 10° SSE
Cosmos 1655 Rocket 4.1 04:24:08 10° S 04:30:30 81° E 04:36:52 10° N
Cosmos 1110 Rocket 4.5 04:32:05 41° NW 04:32:05 41° NW 04:36:38 10° NNE
IRAS Rocket 4.1 04:28:00 10° NNE 04:33:32 78° WNW 04:39:03 10° SSW
S3M 4.0 04:29:02 10° NNW 04:35:08 55° W 04:41:07 10° SSW
Cosmos 2219 3.6 04:35:43 41° WSW 04:35:43 41° WSW 04:40:41 10° S
SKYMED 2 4.0 04:32:08 10° SSE 04:36:24 62° ENE 04:40:42 10° N
BREEZE-M DEB (TANK) 4.0 04:39:16 14° SSE 04:39:52 15° SSE 04:41:36 10° ESE
H-2A R/B 2.1 04:37:42 10° N 04:42:31 47° WNW 04:43:09 44° W
BREEZE-M DEB (TANK) 3.5 04:45:30 32° SSW 04:45:42 32° S 04:51:01 10° ESE
Cosmos 1328 4.3 04:43:35 10° S 04:47:13 56° E 04:50:52 10° NNE
SL-8 R/B 4.3 04:49:43 26° SW 04:52:03 49° SSE 04:56:38 10° E
Meteor 1-24 Rocket 3.6 04:46:54 10° SSW 04:52:17 57° WNW 04:57:34 10° N
ARIANE 5 R/B 4.2 04:48:31 10° NNE 04:53:10 35° E 04:57:50 10° SSE
ARGOS 3.1 04:48:14 10° NNE 04:53:42 82° WNW 04:59:07 10° SSW
Thor Agena Rocket 3.5 04:50:05 10° N 04:55:17 67° WNW 05:00:22 10° SSW
Cosmos 2221 Rocket 4.4 04:51:25 10° S 04:55:42 53° E 05:00:02 10° NNE
Meteor 2-20 Rocket 4.3 04:53:21 10° NNW 04:59:09 56° W 05:04:45 10° S
Cosmos 1844 Rocket 3.0 04:53:49 10° NNW 04:59:28 68° ENE 05:05:03 10° SE
NOSS 2-1 (C) 3.3 04:58:21 38° NW 04:59:47 79° SW 05:04:43 10° SE
Cosmos 2322 Rocket 4.0 04:58:18 10° S 05:03:19 34° ESE 05:08:21 10° NE
Sich 1 Rocket 3.5 05:00:27 10° N 05:04:56 88° W 05:09:26 10° S
H-2A R/B 3.8 05:04:12 10° NE 05:06:26 28° E 05:08:37 10° SSE
IRS-1D 4.1 05:03:37 10° N 05:08:03 33° WNW 05:09:55 25° WSW
Cosmos 1980 Rocket 2.5 05:05:09 23° WSW 05:08:14 44° NW 05:13:37 10° NNE
YAOGAN 11 4.0 05:06:15 10° SSE 05:10:36 90° ESE 05:15:03 10° NNW
Cosmos 2369 3.8 05:07:06 12° SW 05:12:18 56° NW 05:17:53 10° NNE
USA 281 3.6 05:06:49 10° S 05:12:54 39° WSW 05:19:01 10° NW
Cosmos 1777 Rocket 4.5 05:08:26 10° NNW 05:13:42 63° ENE 05:18:55 10° SE
Cosmos 1378 Rocket 3.5 05:11:31 10° SSW 05:15:54 67° WNW 05:20:18 10° N
FengYun 1-2 T 4.2 05:11:03 10° NNE 05:16:41 77° WNW 05:22:20 10° SSW
Cosmos 1674 Rocket 3.4 05:13:35 10° SSW 05:17:53 79° W 05:22:15 10° N
Cosmos 1025 Rocket 3.8 05:14:20 10° S 05:18:26 53° E 05:22:36 10° NNE
Cosmos 371 Rocket 3.9 05:16:34 22° NW 05:18:54 33° WSW 05:23:13 10° SSW
ATLAS CENTAUR R/B 2.2 05:18:24 25° NW 05:19:05 27° NW 05:22:26 10° NNE
ATLAS 3B R/B 3.7 05:15:09 19° WNW 05:19:30 32° WSW 05:26:04 10° S
Okean 2 Rocket 3.1 05:16:08 10° NNW 05:20:34 59° W 05:24:57 10° S
USA 267 3.4 05:14:08 10° ESE 05:20:38 74° NNE 05:26:09 15° WNW
Meteor 2-5 Rocket 4.2 05:15:34 10° SW 05:20:53 38° WNW 05:26:08 10° N
ARIANE 6 FM1 Upper Stage 3.2 05:18:10 10° SSW 05:22:18 60° SE 05:26:32 10° NE
Cosmos 1939 Rocket 3.5 05:19:51 10° N 05:23:04 28° WNW 05:24:26 22° WSW
Cosmos 482 Debris 4.2 05:20:32 23° W 05:23:12 74° NNW 05:26:49 10° ENE
Cosmos 1503 Rocket 4.1 05:17:57 10° NNW 05:23:18 79° ENE 05:28:34 10° SSE
Lacrosse 4 Rocket 3.2 05:24:51 15° WSW 05:24:51 15° WSW 05:26:30 10° SW
Cosmos 1486 Rocket 3.9 05:18:52 10° NNW 05:24:03 70° WSW 05:29:13 10° SSE
COSMO-SKYMED 1 2.8 05:20:19 10° S 05:24:30 46° W 05:28:42 10° NNW
Cosmos 332 Rocket 3.7 05:19:47 10° NNW 05:24:41 80° WSW 05:29:33 10° SSE
Cosmos 1992 Rocket 4.0 05:19:41 10° SW 05:24:51 61° WNW 05:30:03 10° NNE
NOAA 12 4.1 05:20:12 10° NNE 05:25:34 84° WNW 05:30:54 10° SSW
Cosmos 1697 Rocket 3.9 05:24:29 19° WNW 05:26:22 22° NW 05:30:46 10° NNE
SL-08 R/B 4.2 05:23:10 10° SE 05:27:47 52° ENE 05:32:20 10° N
Cosmos 1844 3.7 05:22:29 10° NNW 05:28:11 87° WSW 05:33:54 10° SSE
NOSS 2-1 (D) 4.0 05:29:47 20° WNW 05:32:06 43° SW 05:36:56 10° SSE
Cosmos 2098 Rocket 2.4 05:28:14 10° NNW 05:32:07 65° W 05:35:22 10° S
Cosmos 2227 4.4 05:28:54 10° NW 05:34:22 49° WSW 05:39:48 10° S
SJ-11-01 4.2 05:31:14 10° N 05:35:52 70° WNW 05:40:29 10° SSW
CZ-2C R/B 4.1 05:33:50 10° NNW 05:35:57 14° NW 05:35:57 14° NW
Cosmos 1818 4.1 05:32:02 15° WSW 05:36:15 40° NW 05:41:26 10° NNE
CRYOSAT 2 4.3 05:34:49 10° S 05:39:41 69° W 05:44:35 10° N
ATLAS 2AS CENTAUR R/B 3.5 05:34:49 16° W 05:39:57 35° NNW 05:46:14 10° NE
USA 59 Rocket 0.7 05:39:52 17° WNW 05:42:34 38° SW 05:47:24 10° SSE
Cosmos 2263 Rocket 3.7 05:41:46 14° W 05:42:47 15° W 05:45:50 10° SW
Cosmos 1455 Rocket 3.2 05:39:00 10° N 05:43:24 76° E 05:47:43 10° SSE
NOSS 3 (A) 2.7 05:42:42 21° SW 05:43:34 85° SE 05:45:08 10° NE
Nadezhda 1 Rocket 4.0 05:37:58 10° N 05:44:10 87° W 05:50:15 10° S
CBERS-1 4.4 05:41:09 10° N 05:45:56 41° WNW 05:50:42 10° SW
Cosmos 2237 4.2 05:42:13 10° SW 05:47:52 67° WNW 05:53:33 10° NNE
Cosmos 1869 3.3 05:47:41 10° N 05:51:31 80° E 05:55:19 10° SSE
SL-08 R/B 4.4 05:45:43 10° SSW 05:51:46 65° WNW 05:57:56 10° N
Cosmos 1437 Rocket 3.5 05:52:02 10° SW 05:55:08 26° WNW 05:58:16 10° N
Cosmos 2360 Rocket 2.7 05:49:39 10° SSW 05:55:11 65° ESE 06:00:46 10° NNE
Meteor 2-1 Rocket 4.4 05:49:44 10° N 05:55:33 84° ENE 06:01:12 10° SSE
Cosmos 1484 Rocket 4.2 05:58:43 10° NNW 06:00:44 15° WNW 06:02:43 10° W
Okean 1 Rocket 3.8 05:57:58 10° NNW 06:02:00 34° W 06:06:01 10° SSW
Cosmos 1606 2.6 05:58:44 10° NNW 06:02:02 48° W 06:05:17 10° S
Cosmos 1354 Rocket 4.0 05:58:00 10° NNW 06:03:17 69° WSW 06:08:31 10° SSE
BREEZE-M DEB (TANK) 2.5 05:59:33 10° W 06:04:49 70° SSW 06:06:58 10° ESE
Cosmos 2084 Rocket 3.4 06:01:25 10° SW 06:05:41 63° NW 06:09:51 10° NE
SL-16 R/B 2.3 06:01:56 10° SW 06:07:32 59° NW 06:13:10 10° NNE
Cosmos 292 Rocket 3.8 06:04:03 10° NNW 06:08:53 81° WSW 06:13:42 10° SSE
Gbstr 26 Del rocket 3.6 06:05:58 10° WSW 06:10:48 87° SSE 06:16:50 10° ENE
CZ-2D R/B 3.1 06:07:30 10° N 06:10:57 52° WNW 06:14:23 10° SSW
EXPRESS MD2 3.4 06:11:26 10° SW 06:14:18 41° SSE 06:16:27 10° E
ADEOS Rocket 3.4 06:07:21 10° NNE 06:14:44 88° WNW 06:21:21 10° SSW
Cosmos 1763 Rocket 4.4 06:10:23 10° S 06:15:28 57° ESE 06:20:38 10° NNE
CZ-2D R/B 3.3 06:12:38 10° N 06:16:34 70° WNW 06:20:31 10° SSW
Cosmos 2228 3.8 06:12:34 10° N 06:16:40 54° ENE 06:20:44 10° SSE
SJ-12 4.2 06:15:21 10° N 06:19:06 43° WNW 06:22:50 10° SW
